FENGYUN 1C DEB

Satellite information

Favourite Embed

Satellite Type and Status

DEBRISIN ORBIT

Key statistics

Satellite FENGYUN 1C DEB at a glance.

Uptime

9715

Days in orbit

Revolutions

≈ 14.4

Per day

Orbit

SSO

Sun Synchronous Orbit

Inclination

99.0

Latest

Satellite identification and parameters

Extended collection of information and parameters for FENGYUN 1C DEB.

Object identification

Identified? True

Debris? True

Object name: FENGYUN 1C DEB

International designator: 1999-025DZS

Object number (NORAD): 36696

Object ID (CCSDS): 36696

Country: PEOPLES REPUBLIC OF CHINA (PRC)

Current information (Y/N): Y

RCS size: SMALL

Orbital parameters

Period: 100.06 minutes

Inclination: 98.9925 deg

SMA: 7139.509 km

Apoapsis: 777.795 km

Periapsis: 744.953 km

RAAN: 352.121 deg

Eccentricy: 0.0023

Argument of periapsis: 339.2487 deg

Mean anomaly: 20.7763 deg

Mean motion: 14.39130794 rev/day

Mean motion (dot): 0.00008775 rev/day2

B* drag term: 0.0028391 1/REarth

Two-line elements (TLE)

Creation date: Dec. 9, 2025, 3:06 p.m.

Reference frame: TEME

Reference center: EARTH

Epoch: Dec. 9, 2025, 7:03 a.m. UTC

TLE line 0: 0 FENGYUN 1C DEB

TLE line 1: 1 36696U 99025DZS 25343.29402471 .00008775 00000-0 28391-2 0 9993

TLE line 2: 2 36696 98.9925 352.1210 0023000 339.2487 20.7763 14.39130794643468

Live tracking on map

Real-time ground track for satellite FENGYUN 1C DEB.

In-orbit conjunctions

A list of the most updated potential collisions computed for object FENGYUN 1C DEB.

Target Orbit TCA Probability of collision Miss distance Type
COSMOS 783 LEO 2025-06-10 20:24:03 0.00010406 977.0 (m) PAYLOAD
START 1 LEO 2024-12-25 13:21:29 0.0006335651 286.0 (m) PAYLOAD
CZ-6A DEB LEO 2024-12-12 20:25:51 0.0004382183 554.0 (m) DEBRIS
CZ-6A DEB LEO 2024-09-28 23:25:00 0.0001247152 349.0 (m) DEBRIS

Associated space launch

Chinese polar orbiting meteorological satellite

FENGYUN 1C DEB was lifted into orbit during the mission ‘Long March 4B | Feng Yun 1C’, on board a Long March 4B space rocket.

The launch took place on May 10, 1999, 1:33 a.m. from Launch Complex 7.

For more information about the launch, click the button.

Launch to space Long March 4B | Feng Yun 1C
Long March 4B | Feng Yun 1C

Agency: N/A

Status: Launch Successful

Launch date: May 10, 1999, 1:33 a.m. UTC

Rocket: Long March 4B

Launch pad: Launch Complex 7

Location: Taiyuan Satellite Launch Center, People's Republic of China

...

Latest news about this satellite

There are no fresh news available about this satellite. Check back as we update our databases every day.


Newsletter sign-up

Weekly statistics, charts and insights to help you stay on top of the space industry.